Boulder City, NV

11:43 AM PST on November 17, 2019 (GMT -0800)
Boulder City

Weather History for KBVU - September, 2019

Change the Weather History Date:

Monday, September 23, 2019

  Actual Average (WUND) Record (WUND)
Temperature  
Mean Temperature 76 °F -  
Max Temperature 87 °F - - (-1)
Min Temperature 64 °F - - (-1)
Cooling Degree Days 10    
Growing Degree Days 26 (Base 50)    
Moisture  
Dew Point 36 °F    
Average Humidity 25    
Maximum Humidity 50    
Minimum Humidity 12    
Precipitation  
Precipitation 0.00 in - - ()
Sea Level Pressure  
Sea Level Pressure 29.94 in    
Wind  
Wind Speed 4 mph ()    
Max Wind Speed 15 mph    
Max Gust Speed 22 mph    
Visibility 10.0 miles    
Events Rain , Thunderstorm    
Averages and records for this station are not official NWS values.
T = Trace of Precipitation, MM = Missing Value Source: Averaged Metar Reports

Daily Weather History Graph

Daily Weather History Graph

Search for Another Location

Airport or City:

Astronomy

Sep. 23, 2019 Rise Set
Actual Time 6:28 AM PDT 6:35 PM PDT
Civil Twilight 6:02 AM PDT 7:00 PM PDT
Nautical Twilight 5:32 AM PDT 7:30 PM PDT
Astronomical Twilight 5:02 AM PDT 8:00 PM PDT
Moon 12:27 AM PDT (9/23) 3:20 PM PDT (9/23)
Length of Visible Light 12h 58m
Length of Day
12h 06m
Waning Crescent, 32% of the Moon is Illuminated
Sep 23
Waning Crescent
Sep 28
New
Oct 5
First Quarter
Oct 13
Full
Oct 21
Last Quarter

Hourly Weather History & Observations

Time (PDT) Temp. Dew Point Humidity Pressure Visibility Wind Dir Wind Speed Gust Speed Precip Events Conditions
12:15 AM 68.0 °F 32.0 °F 26% 29.91 in 10.0 mi Calm Calm - N/A   Partly Cloudy
12:35 AM 69.8 °F 26.6 °F 20% 29.91 in 10.0 mi WNW 4.6 mph - N/A   Partly Cloudy
12:55 AM 71.6 °F 19.4 °F 14% 29.91 in 10.0 mi Calm Calm - N/A   Clear
1:15 AM 68.0 °F 26.6 °F 21% 29.91 in 10.0 mi NW 3.5 mph - N/A   Partly Cloudy
1:35 AM 66.2 °F 26.6 °F 23% 29.91 in 10.0 mi NW 3.5 mph - N/A   Mostly Cloudy
1:55 AM 66.2 °F 26.6 °F 23% 29.91 in 10.0 mi WNW 3.5 mph - N/A   Scattered Clouds
2:15 AM 66.2 °F 26.6 °F 23% 29.91 in 10.0 mi Calm Calm - N/A   Scattered Clouds
2:35 AM 66.2 °F 24.8 °F 21% 29.90 in 10.0 mi NNW 4.6 mph - N/A   Mostly Cloudy
2:55 AM 66.2 °F 26.6 °F 23% 29.91 in 10.0 mi NW 4.6 mph - N/A   Mostly Cloudy
3:15 AM 66.2 °F 23.0 °F 19% 29.91 in 10.0 mi NW 3.5 mph - N/A   Mostly Cloudy
3:35 AM 68.0 °F 19.4 °F 16% 29.91 in 10.0 mi NW 8.1 mph - N/A   Mostly Cloudy
3:55 AM 68.0 °F 19.4 °F 16% 29.91 in 10.0 mi WNW 5.8 mph - N/A   Mostly Cloudy
4:15 AM 69.8 °F 19.4 °F 15% 29.91 in 10.0 mi WNW 3.5 mph - N/A   Scattered Clouds
4:35 AM 66.2 °F 24.8 °F 21% 29.91 in 10.0 mi Calm Calm - N/A   Mostly Cloudy
4:55 AM 64.4 °F 26.6 °F 24% 29.91 in 10.0 mi North 4.6 mph - N/A   Mostly Cloudy
5:35 AM 66.2 °F 24.8 °F 21% 29.92 in 10.0 mi North 6.9 mph - N/A   Overcast
5:55 AM 66.2 °F 26.6 °F 23% 29.92 in 10.0 mi NE 4.6 mph - N/A   Mostly Cloudy
6:15 AM 66.2 °F 28.4 °F 24% 29.93 in 10.0 mi NE 4.6 mph - N/A   Scattered Clouds
6:35 AM 64.4 °F 30.2 °F 28% 29.93 in 10.0 mi NE 3.5 mph - N/A   Clear
6:55 AM 66.2 °F 28.4 °F 24% 29.94 in 10.0 mi NE 4.6 mph - N/A   Clear
7:15 AM 69.8 °F 26.6 °F 20% 29.94 in 10.0 mi Calm Calm - N/A   Clear
7:35 AM 71.6 °F 30.2 °F 22% 29.95 in 10.0 mi Calm Calm - N/A   Clear
7:55 AM 75.2 °F 23.0 °F 14% 29.95 in 10.0 mi Calm Calm - N/A   Clear
8:15 AM 77.0 °F 23.0 °F 13% 29.96 in 10.0 mi Calm Calm - N/A   Clear
8:35 AM 77.0 °F 24.8 °F 14% 29.96 in 10.0 mi Calm Calm - N/A   Clear
8:55 AM 78.8 °F 24.8 °F 14% 29.97 in 10.0 mi Calm Calm - N/A   Clear
9:15 AM 80.6 °F 24.8 °F 13% 29.97 in 10.0 mi East 3.5 mph - N/A   Clear
9:35 AM 80.6 °F 26.6 °F 14% 29.97 in 10.0 mi NE 4.6 mph - N/A   Clear
9:55 AM 82.4 °F 26.6 °F 13% 29.97 in 10.0 mi Calm Calm - N/A   Clear
10:15 AM 82.4 °F 24.8 °F 12% 29.97 in 10.0 mi SE 6.9 mph - N/A   Clear
10:55 AM 84.2 °F 28.4 °F 13% 29.95 in 10.0 mi ESE 5.8 mph - N/A   Clear
11:15 AM 84.2 °F 32.0 °F 15% 29.95 in 10.0 mi Variable 5.8 mph - N/A   Clear
11:35 AM 86.0 °F 33.8 °F 15% 29.94 in 10.0 mi East 9.2 mph - N/A   Clear
11:55 AM 86.0 °F 33.8 °F 15% 29.94 in 10.0 mi Variable 4.6 mph - N/A   Clear
12:15 PM 86.0 °F 35.6 °F 17% 29.93 in 10.0 mi ESE 5.8 mph 13.8 mph N/A   Clear
12:35 PM 86.0 °F 35.6 °F 17% 29.93 in 10.0 mi Calm Calm - N/A   Clear
12:55 PM 86.0 °F 37.4 °F 18% 29.92 in 10.0 mi Calm Calm - N/A   Clear
1:15 PM 87.8 °F 35.6 °F 16% 29.91 in 10.0 mi SE 12.7 mph - N/A   Clear
1:35 PM 87.8 °F 37.4 °F 17% 29.91 in 10.0 mi ESE 9.2 mph - N/A   Clear
1:55 PM 86.0 °F 35.6 °F 17% 29.90 in 10.0 mi ENE 5.8 mph 16.1 mph N/A   Clear
2:15 PM 86.0 °F 37.4 °F 18% 29.89 in 10.0 mi ENE 10.4 mph - N/A   Clear
2:35 PM 86.0 °F 39.2 °F 19% 29.90 in 10.0 mi Calm Calm - N/A   Mostly Cloudy
2:55 PM 84.2 °F 42.8 °F 23% 29.89 in 10.0 mi SSW 4.6 mph - N/A Rain , Thunderstorm Light Thunderstorms and Rain
3:15 PM 84.2 °F 42.8 °F 23% 29.90 in 10.0 mi Variable 3.5 mph - N/A Thunderstorm Mostly Cloudy
3:35 PM 86.0 °F 41.0 °F 20% 29.90 in 10.0 mi Calm Calm - N/A Thunderstorm Thunderstorm
3:55 PM 86.0 °F 44.6 °F 23% 29.89 in 10.0 mi ESE 5.8 mph 16.1 mph N/A Thunderstorm Partly Cloudy
4:15 PM 86.0 °F 44.6 °F 23% 29.90 in 10.0 mi East 12.7 mph - N/A   Mostly Cloudy
4:35 PM 82.4 °F 48.2 °F 30% 29.91 in 10.0 mi ESE 15.0 mph 21.9 mph N/A Thunderstorm Mostly Cloudy
4:55 PM 80.6 °F 50.0 °F 34% 29.91 in 10.0 mi ESE 13.8 mph - N/A Thunderstorm Scattered Clouds
5:15 PM 82.4 °F 50.0 °F 32% 29.91 in 10.0 mi East 12.7 mph - N/A   Partly Cloudy
5:35 PM 82.4 °F 44.6 °F 26% 29.92 in 10.0 mi East 15.0 mph - N/A   Scattered Clouds
5:55 PM 82.4 °F 46.4 °F 28% 29.92 in 10.0 mi ESE 10.4 mph - N/A   Mostly Cloudy
6:15 PM 80.6 °F 44.6 °F 28% 29.93 in 10.0 mi ENE 11.5 mph - N/A   Mostly Cloudy
6:35 PM 80.6 °F 42.8 °F 26% 29.95 in 10.0 mi NE 11.5 mph - N/A Thunderstorm Overcast
6:55 PM 75.2 °F 55.4 °F 50% 29.97 in 10.0 mi SE 9.2 mph - N/A   Light Drizzle
7:15 PM 75.2 °F 53.6 °F 47% 29.97 in 10.0 mi ESE 15.0 mph - N/A   Overcast
7:35 PM 73.4 °F 51.8 °F 47% 30.00 in 10.0 mi East 12.7 mph - N/A   Mostly Cloudy
7:55 PM 73.4 °F 50.0 °F 44% 30.02 in 10.0 mi ENE 12.7 mph - N/A   Overcast
8:15 PM 73.4 °F 48.2 °F 41% 30.02 in 10.0 mi East 6.9 mph - N/A   Overcast
8:35 PM 73.4 °F 48.2 °F 41% 30.02 in 10.0 mi East 6.9 mph 13.8 mph N/A   Mostly Cloudy
8:55 PM 73.4 °F 48.2 °F 41% 30.02 in 10.0 mi SE 5.8 mph - N/A   Partly Cloudy
9:15 PM 73.4 °F 48.2 °F 41% 30.01 in 10.0 mi Calm Calm - N/A   Clear
9:35 PM 71.6 °F 48.2 °F 43% 30.00 in 10.0 mi WNW 4.6 mph - N/A   Clear
9:55 PM 69.8 °F 46.4 °F 43% 30.00 in 10.0 mi NW 3.5 mph - N/A   Scattered Clouds
10:35 PM 69.8 °F 48.2 °F 46% 30.02 in 10.0 mi ENE 5.8 mph - N/A   Clear
10:55 PM 71.6 °F 48.2 °F 43% 30.02 in 10.0 mi SE 8.1 mph - N/A   Mostly Cloudy
11:15 PM 73.4 °F 46.4 °F 38% 30.02 in 10.0 mi ESE 4.6 mph - N/A   Overcast
11:35 PM 69.8 °F 48.2 °F 46% 30.02 in 10.0 mi ENE 3.5 mph - N/A   Scattered Clouds
11:55 PM 68.0 °F 48.2 °F 49% 30.01 in 10.0 mi Calm Calm - N/A   Mostly Cloudy